Location: Unspecified
(51.5147°N, 7.4673°E)
Time: 03:43:58
(UTC+01:00)

A-11 Canister half - Pass Details

Date: 23 February 2026
Orbit: 1512 x 1687 km, 47.2° (Epoch: 7 March)

Event Time Altitude Azimuth Distance (km) Brightness Sun altitude
Rises 19:31:42 0° 215° (SW) 4,926 12.1 -15.0°
Reaches altitude 10° 19:35:08 10° 208° (SSW) 3,945 11.4 -15.5°
Maximum altitude 19:44:13 39° 144° (SE) 2,337 9.6 -17.0°
Enters shadow 19:49:28 24° 95° (E) 2,969 9.8 -17.8°
Drops below altitude 10° 19:53:13 10° 81° (E) 3,909 - -18.3°
Sets 19:56:35 0° 74° (ENE) 4,878 - -18.9°
